STARLINK-11652, 63315

Orbit data source: Space-Track

STARLINK-11652, 63315 is a payload satellite owned by SpaceX/Seattle (US) in LEO that was launched on Tue, 18 Mar 2025 UTC via an FALCON 9 launch vehicle from the Air Force Eastern Test Range (AFETR). Payload-class satellites include a variety of spacecraft equipped with specific instruments for various scientific and technological missions. These include communications satellites like Starlink; space stations such as the ISS; scientific satellites like the Hubble; Earth observation satellites from companies like Planet Labs, Umbra, and HawkEye 360; GPS; miniature CubeSats for education and research; and military/defense satellites.

Loading next visibility...
Identifier
63315, 2025-057J
Orbit
LEO
Last TLE update
2 days ago
Origin
Manufacturer
SpaceX/Seattle
Mission
Operational spacecraft
Bus & Motor
STARLINK V2M, Unknown motor
Mass
730 kg wet, ~700 kg dry
Launch date (UTC)
2025-03-18 (1 month ago)
Launch vehicle
FALCON 9
Launch site
Air Force Eastern Test Range (AFETR)
Object type
Payload
Rocket body
Debris
Shape & HBR
Unknown
Radar Cross Section
Large (>1 m²)

Expand to show TLE details & history

TLE from 2 days ago
0 STARLINK-11652
1 63315U 25057J   25118.73499470  .00002208  00000-0  20724-4 0  9998
2 63315  42.9992   2.9573 0003022 285.3511  74.7023 15.70823970  7678
Epoch: 2025-04-28T17:38Z
Definitive object data (Epoch: 2025-04-28T17:38:23.542Z)
Latitude
0.00003°
Longitude
-118.58552°
Altitude
355.776 km
Speed
7.698 km/s
True Right ascension
00h 11m 49s
True Declination
0° 00' 00"
Sunlit
Object was in daylight at TLE epoch
Visualization TLE readout
Latitude
-42.68976°
Longitude
151.51454°
Altitude
367.72 km
Speed
7.69 km/s
Apparent Right ascension
22h 48m 52s
Apparent Declination
-88° 41' 01"
Sunlit
Object is in full shadow
Visualization observer readout
Local Sidereal Time
18:03:33
Azimuth
178.384° S
Elevation
-39.483°
Doppler factor
1
Orbital elements
Apogee altitude
360.558 km
Perigee altitude
356.487 km
Semi-major axis
6,736.66 km
Eccentricity
0.0003022
Inclination
42.9992°
RAAN
2.9573°
Arg. of periapsis
285.3511°
True anomaly
74.73571°
Mean anomaly
74.7023°
Eccentric anomaly
74.719°
Mean motion
3.92533 °/min
BSTAR
0.000020724
Orbital period
91.71 mins
Loading maneuver chart data...
Loading SW <> Apogee altitude chart data...
Loading historical data...
Loading historical data...
Loading historical data...
Loading historical data...
Loading historical data...
Loading historical data...
Loading historical data...

STARLINK-11652 Visibility forecast

Observer location: undefined°, undefined°

Span
Click to sort rows by Start time (UTC) header in descending order
Start Az.
Max El. time (UTC)
Max El. Az.
Max El.
End time (UTC)
End Az.
4 mins2025-04-30 18:40:32.744Z200.92° SSW2025-04-30 18:42:32.744Z151.397° SSE22.148°2025-04-30 18:44:32.744Z98.864° ESE
4 mins2025-04-30 21:53:32.744Z304.25° NW2025-04-30 21:54:32.744Z341.728° N33.544°2025-04-30 21:57:32.744Z75.514° E
4 mins2025-04-30 23:29:32.744Z286.875° WNW2025-04-30 23:31:32.744Z116.762° SE41.255°2025-04-30 23:33:32.744Z110.945° ESE
|